Theta_e
331 328 327 325 323 326 321 314 302 305 306 297 297 299 296 300 300 300 301 302 302 306 308 307 305 304 303 305 308 309 309 307 307 302 303 325 335 337 340 341 342 343 345 347 347 348 348 344 345 346 348 349 349 349 348 348 349 348 348 348 348 347 347 347 346 347 347 347 347 346 345 345 344 344 343 344 343 341 338 338 338 338 338 338 338 339 340 339 339 339 339 339 339 343 343 343 343
326 325 325 326 323 321 311 309 304 300 300 296 296 298 298 300 300 301 301 302 306 307 308 307 308 311 312 312 312 311 311 316 313 320 326 328 333 337 340 341 341 342 346 347 347 346 348 348 342 345 349 349 349 348 348 349 350 350 349 349 348 348 348 347 346 347 346 346 346 346 345 344 345 344 343 343 342 342 338 337 338 338 338 338 339 338 339 339 338 338 338 340 344 344 343 342 342
323 325 322 324 319 318 312 310 300 298 297 293 295 299 299 299 300 301 303 306 309 309 310 310 309 308 308 307 307 306 305 316 320 322 325 328 329 334 340 341 342 346 346 347 347 347 348 346 340 345 348 349 348 348 348 349 350 349 349 349 348 348 347 347 346 346 346 346 346 345 344 344 344 344 343 342 342 340 336 336 337 338 337 338 338 338 338 338 337 338 338 340 342 342 342 341 341
327 324 325 323 313 316 308 305 302 299 296 296 296 299 299 300 301 303 305 308 308 306 304 306 306 308 307 305 307 310 309 313 319 323 321 326 332 336 340 340 343 346 348 348 347 347 348 343 341 345 346 349 348 348 348 349 349 348 348 348 347 347 347 347 346 346 346 346 346 345 344 344 343 343 343 342 342 338 335 335 336 337 337 337 338 337 338 337 336 337 338 339 341 340 340 341 341
324 321 325 321 317 308 308 302 300 300 294 296 296 300 300 302 303 304 304 305 304 304 303 307 308 311 312 311 309 307 308 315 317 322 326 332 335 337 339 341 343 346 346 347 347 347 347 339 340 343 346 348 349 348 348 348 348 349 349 348 347 347 347 346 345 345 345 345 345 345 344 343 343 342 342 342 340 336 334 334 336 337 336 337 338 337 337 336 338 339 342 342 342 342 341 341 340
322 320 323 323 311 310 308 302 299 298 299 301 298 300 301 303 303 305 303 304 303 302 304 305 306 306 308 312 315 312 316 309 320 324 329 331 336 338 338 341 343 344 347 346 347 347 348 337 339 341 344 345 348 348 348 347 347 348 348 348 347 347 347 346 346 344 344 345 345 344 343 342 342 342 342 341 338 336 333 334 336 336 336 336 336 336 335 337 339 343 343 342 342 341 338 337 337
321 318 319 315 311 313 303 299 298 298 298 298 301 301 302 302 303 302 302 303 303 303 302 306 307 309 306 311 313 321 320 325 322 328 333 334 336 336 339 342 345 344 347 346 347 347 347 337 340 341 342 343 347 348 348 347 346 347 347 347 347 347 346 346 345 345 345 344 344 343 343 342 342 341 340 339 338 335 334 335 336 336 335 335 335 335 335 338 338 341 342 340 338 336 335 335 335
319 318 314 310 304 307 301 300 299 301 297 298 299 300 302 302 301 302 303 303 302 304 306 307 306 305 306 311 307 317 318 324 324 328 330 332 335 336 340 342 343 344 345 345 347 346 341 337 338 340 341 343 344 347 347 347 346 346 347 347 347 346 346 346 345 345 345 343 343 343 342 342 342 341 340 339 338 334 334 335 336 335 335 334 334 333 337 337 340 341 339 337 335 333 332 332 332
317 314 309 313 303 303 300 300 299 299 298 298 299 300 304 302 301 302 302 302 301 302 306 307 304 302 305 309 308 312 311 316 317 320 330 333 335 337 339 344 342 343 345 346 347 346 346 335 337 338 342 344 345 346 347 347 346 346 346 346 346 346 346 345 344 343 342 342 343 342 342 342 341 340 339 338 337 334 334 334 335 335 335 334 334 333 336 337 338 338 337 335 334 332 330 330 330
313 313 307 307 307 300 299 298 299 298 299 300 300 301 301 300 300 300 303 301 303 304 306 304 303 303 306 307 306 309 310 313 325 329 332 333 336 337 340 344 344 343 346 346 345 346 345 339 335 340 340 341 342 345 346 346 346 346 346 346 345 346 346 345 344 343 343 342 342 342 341 341 340 339 338 338 337 335 333 333 333 334 335 334 334 333 333 334 334 335 334 333 331 330 328 328 329
309 310 312 306 302 298 299 298 299 298 298 300 300 301 302 302 301 301 301 302 302 305 305 304 303 304 307 305 307 308 311 318 328 329 330 333 337 338 340 342 345 345 344 347 346 346 347 344 336 337 338 339 341 341 344 347 346 346 347 347 346 346 345 344 344 344 343 342 342 341 341 340 340 339 338 337 336 336 333 332 331 332 332 334 334 334 333 333 332 333 332 330 328 327 326 327 328
307 308 311 303 300 300 299 299 298 299 299 300 300 302 301 301 301 301 301 301 302 302 304 304 303 307 304 304 307 307 318 325 328 329 329 333 335 336 337 339 342 344 345 346 347 344 346 346 344 340 335 338 338 339 341 343 346 347 347 347 346 346 345 344 344 342 342 342 341 341 341 340 340 339 338 337 336 335 334 332 330 329 330 332 333 333 333 333 332 330 329 327 326 326 326 327 328
310 311 306 302 300 300 300 299 298 301 300 299 301 301 301 301 301 303 303 303 303 302 303 305 306 305 302 304 306 307 315 325 327 329 326 333 334 335 335 336 338 341 340 340 340 339 342 345 343 343 339 332 334 336 337 340 342 345 346 347 346 345 344 344 343 342 341 341 340 340 340 338 338 337 337 336 335 334 335 334 333 331 328 328 330 331 331 330 329 327 326 325 325 326 327 327 327
312 311 308 301 297 299 299 299 299 298 298 302 302 300 300 301 303 302 304 301 302 302 303 303 305 305 305 305 304 306 312 324 325 322 324 332 332 331 331 335 337 334 331 333 334 335 337 338 343 343 341 341 344 338 332 335 338 341 344 343 343 344 344 343 342 342 342 341 340 339 338 337 337 336 336 335 334 334 334 333 332 331 328 327 328 328 328 327 327 325 325 325 326 326 326 326 326
310 306 307 302 299 299 299 298 298 298 300 302 301 300 299 301 300 300 303 302 303 303 304 304 305 302 302 304 304 307 313 324 324 321 324 329 330 329 329 330 328 329 329 326 328 331 331 331 336 337 338 341 343 345 346 344 333 336 339 339 340 342 342 340 340 340 339 338 337 335 334 333 332 332 332 333 333 333 332 330 331 329 329 329 329 329 328 328 327 326 326 325 325 325 325 325 324
311 310 307 302 298 299 298 299 298 299 300 302 299 300 301 301 300 301 302 301 303 305 304 304 304 303 303 304 304 306 315 323 322 322 325 330 330 327 327 328 328 326 328 327 327 327 327 326 331 333 332 339 340 343 346 347 335 332 337 338 338 339 338 337 337 337 332 331 330 330 328 331 329 330 326 331 329 330 329 329 330 329 329 329 328 328 328 328 327 326 325 324 324 323 323 321 321
307 313 302 302 298 297 300 299 298 297 302 301 298 300 301 301 300 301 301 301 303 303 303 306 305 305 305 304 307 309 315 320 320 322 327 329 330 328 328 326 329 327 324 324 323 324 326 324 327 331 332 337 335 336 343 346 348 331 331 332 332 332 333 333 332 327 324 323 326 325 327 335 334 334 333 333 325 332 323 325 328 330 329 327 327 327 326 325 324 324 323 322 320 318 315 315 315
310 304 302 299 301 299 302 301 301 302 302 301 299 301 302 300 301 303 303 303 303 303 303 305 304 306 307 308 309 311 318 321 322 324 326 326 329 328 327 328 330 328 325 327 321 320 321 321 324 326 332 333 335 336 340 344 346 340 346 345 344 337 330 328 337 342 335 340 326 334 339 336 336 336 333 330 332 331 329 322 324 327 328 327 326 326 326 324 324 323 322 321 319 317 315 315 313
306 302 302 299 301 302 303 303 302 301 303 303 301 299 301 302 303 303 302 302 302 302 303 304 304 307 308 308 311 313 318 320 321 323 325 324 325 326 327 328 328 325 322 324 322 318 319 321 323 325 329 331 335 336 337 341 344 345 347 346 345 336 338 342 343 342 342 340 340 341 337 338 337 335 334 332 331 322 326 321 323 326 327 326 326 325 325 323 322 321 320 318 316 315 315 314 313
300 304 299 300 305 300 300 301 301 300 300 301 300 299 300 301 302 303 301 302 301 301 303 303 303 305 307 310 313 316 316 319 320 322 324 324 326 326 327 328 327 328 325 321 320 319 319 321 323 325 327 330 333 336 338 340 343 344 344 344 342 343 342 342 343 342 343 342 341 341 339 338 336 334 325 323 325 328 323 318 318 319 321 321 320 321 321 321 320 319 318 316 315 313 312 311 309
300 301 300 300 298 301 299 299 300 299 299 302 301 298 300 300 301 302 302 300 301 303 305 305 305 306 308 310 313 316 315 318 319 321 323 324 326 327 326 327 327 324 321 320 321 319 318 320 324 327 328 330 332 336 336 337 341 343 343 342 342 344 342 341 342 342 341 342 342 340 340 338 337 333 331 331 330 326 325 323 324 324 324 324 320 322 320 319 319 319 317 314 313 311 309 307 306
303 299 297 298 298 301 298 298 297 298 296 301 300 300 301 300 300 301 302 300 301 304 305 306 306 306 308 309 314 315 315 317 318 319 321 322 322 323 322 321 318 317 317 321 320 320 321 320 322 325 327 328 330 334 336 336 336 339 341 342 341 341 342 341 340 342 339 340 342 340 339 338 335 334 332 332 330 329 326 325 325 325 325 325 324 323 322 321 319 316 314 311 308 306 305 305 304
300 298 298 298 298 300 298 298 296 297 300 300 300 302 301 301 302 300 301 302 304 303 304 304 303 304 307 311 315 314 315 316 317 318 320 321 321 322 322 322 321 321 321 321 319 319 320 321 322 324 325 328 329 334 336 337 338 336 340 340 340 339 340 340 339 339 339 340 341 340 338 337 334 334 332 331 330 331 328 326 325 325 325 324 323 322 321 319 316 313 310 308 306 304 303 303 302
303 299 298 298 297 299 297 298 294 296 299 300 301 300 301 299 300 299 298 303 305 301 302 303 304 302 306 311 314 314 315 316 317 318 319 321 320 320 320 320 319 318 320 319 319 319 320 320 321 322 324 326 329 333 335 335 335 335 332 336 339 337 338 338 338 336 337 339 338 338 335 336 334 334 333 331 330 330 331 328 327 326 325 324 322 321 317 315 313 311 309 306 304 302 301 301 300
301 299 298 298 298 298 297 296 297 297 298 298 299 300 300 300 300 298 301 304 305 304 304 304 303 303 305 309 313 314 315 316 316 317 313 313 315 315 315 316 316 318 318 317 318 318 319 320 320 320 322 324 327 331 333 334 333 333 333 332 330 331 336 337 337 335 334 335 337 338 335 334 333 330 332 331 329 325 324 328 329 327 325 323 321 318 315 313 311 309 306 304 302 301 301 300 299
301 299 299 299 299 298 297 297 297 298 299 299 300 300 299 299 298 298 304 305 302 303 304 305 305 305 305 307 311 313 314 314 316 313 314 313 312 312 313 314 315 314 316 315 316 318 318 318 319 319 321 323 325 330 331 332 332 331 331 329 327 325 330 331 333 333 334 333 332 332 332 330 328 326 325 326 324 321 319 320 322 323 322 320 318 315 314 312 309 306 304 303 301 300 299 299 298
300 299 301 301 298 299 298 300 299 298 301 298 300 301 299 298 298 301 302 302 301 303 304 304 305 305 306 307 309 312 313 314 313 314 313 312 311 313 314 314 314 314 314 314 316 317 319 318 320 321 321 322 325 328 329 331 331 330 328 327 326 324 325 327 330 329 330 330 329 329 330 329 327 326 324 321 322 320 318 316 315 315 314 315 315 313 313 310 309 307 304 301 301 299 298 299 298
300 300 300 301 299 300 299 300 299 300 300 298 301 300 299 299 299 301 304 301 302 303 304 304 304 306 306 306 307 309 311 313 313 313 312 312 312 313 314 314 313 313 313 313 316 317 317 318 320 320 321 322 324 327 329 329 329 326 325 326 324 324 325 323 322 325 325 327 329 329 327 328 326 324 322 320 317 315 314 313 312 313 312 313 314 313 312 310 307 306 304 303 302 300 298 297 297
299 299 300 300 301 301 300 300 299 298 300 298 300 300 299 298 299 303 299 301 301 302 304 304 305 305 306 306 306 307 309 310 311 311 314 314 315 314 314 314 314 313 314 315 315 316 316 318 318 318 320 322 323 324 325 327 327 323 321 322 323 322 322 322 320 318 319 324 326 327 326 325 326 326 323 319 315 314 313 312 311 310 311 312 311 310 308 306 305 303 302 301 299 299 298 296 297
299 301 300 299 300 300 299 298 298 298 299 297 299 295 300 302 303 301 301 301 301 301 303 304 304 304 305 305 306 307 308 308 308 310 312 313 312 313 313 312 312 313 313 314 315 315 316 317 318 319 319 319 320 318 319 322 322 320 316 316 315 315 315 316 315 314 316 320 321 322 322 321 321 319 316 313 310 309 309 309 310 310 311 310 310 308 306 305 302 301 300 298 298 296 295 295 294
300 298 300 299 297 297 298 299 298 299 298 298 300 295 299 302 302 300 298 299 301 302 304 305 304 304 304 305 305 306 307 308 308 309 310 310 311 312 312 312 312 312 312 314 314 315 315 315 316 316 315 317 317 316 315 316 318 316 314 313 313 312 311 311 310 312 314 313 314 316 317 316 317 315 313 310 307 306 304 304 305 307 308 309 308 307 306 304 302 301 299 298 297 296 295 295 295
297 296 296 297 296 298 298 297 297 299 298 298 300 296 298 302 304 299 298 299 300 301 303 304 304 304 304 304 304 305 306 307 306 307 308 308 310 311 311 311 312 311 312 314 314 315 314 315 315 316 316 315 314 312 311 312 313 314 313 309 309 309 309 309 309 308 309 310 311 312 313 314 315 313 309 307 306 307 305 303 304 305 306 307 308 307 306 303 301 300 299 299 296 296 295 295 295
298 297 296 295 295 297 297 296 296 296 297 298 299 297 299 300 302 299 298 299 299 300 302 303 303 303 303 304 304 305 305 305 305 305 306 306 309 311 311 311 311 312 313 313 312 313 313 312 313 315 314 313 309 308 308 307 307 308 309 309 306 307 306 306 306 307 307 307 308 309 309 309 310 309 306 305 305 304 305 304 305 306 307 306 306 305 304 302 301 301 300 300 299 296 296 295 294
296 296 295 296 294 296 294 296 296 298 297 297 298 295 298 301 301 300 297 300 300 300 302 303 304 303 303 304 304 304 304 305 305 305 305 306 309 310 311 310 311 313 313 313 313 313 312 312 313 311 310 309 309 308 306 305 304 305 305 304 304 304 304 305 304 304 305 307 308 304 304 304 305 306 306 306 305 304 305 305 305 305 306 306 305 304 302 302 302 302 300 300 299 297 295 294 293
294 294 294 294 292 294 295 295 296 296 295 296 298 296 298 300 303 304 303 300 300 301 302 304 304 303 303 303 303 304 304 304 306 307 306 305 308 309 310 310 311 312 312 312 312 312 311 310 309 306 306 305 305 305 303 302 301 303 303 301 301 301 301 303 303 303 304 304 304 303 302 302 302 303 304 304 304 303 304 305 306 306 306 306 304 302 302 302 302 302 300 299 298 297 295 295 294
295 297 295 296 293 295 294 297 296 295 297 296 297 296 298 301 302 303 304 302 300 301 302 302 302 303 303 303 304 303 304 304 307 307 306 306 308 309 309 310 311 312 311 311 311 311 310 307 306 305 304 303 304 303 302 301 301 300 299 299 300 298 298 299 300 301 300 301 300 301 301 302 302 301 301 302 303 304 304 305 306 305 305 304 302 301 301 301 301 300 299 298 296 296 296 295 295
297 297 297 294 295 296 296 295 295 294 295 297 298 299 298 299 301 303 304 303 300 300 300 301 302 303 303 303 303 304 304 305 308 306 305 306 308 309 309 310 310 311 311 310 310 309 309 306 305 304 303 302 302 302 302 301 300 300 300 300 299 300 296 297 297 298 298 298 300 301 301 301 301 301 301 301 302 302 304 305 305 305 305 305 304 302 302 302 301 300 298 297 295 294 294 296 295
296 296 295 295 295 294 296 296 295 296 295 297 298 296 297 299 301 302 303 302 301 301 301 302 302 303 304 304 305 305 304 306 303 303 303 305 307 309 309 309 309 308 309 309 309 309 309 306 305 303 303 303 303 303 302 303 303 303 302 300 299 299 298 296 296 296 296 297 298 298 298 299 300 300 300 301 301 302 302 303 304 304 305 305 304 303 302 300 300 299 298 295 296 294 293 295 296
296 296 296 294 296 297 295 293 295 296 295 295 297 295 297 299 300 302 302 302 303 303 303 304 304 305 304 304 305 305 304 304 302 302 303 304 306 308 308 309 309 309 309 309 309 309 307 304 304 303 303 303 303 303 304 303 302 301 300 298 299 295 294 295 296 296 295 295 295 295 296 297 298 299 299 299 301 301 302 302 303 304 304 303 302 301 301 300 299 299 298 296 295 295 294 295 295
296 295 293 293 296 292 292 295 294 294 294 296 296 294 296 299 301 301 303 303 303 305 304 304 304 303 304 305 306 305 304 304 302 301 301 302 305 307 307 308 308 309 308 308 308 307 305 305 304 303 303 304 304 303 300 299 298 297 297 296 295 297 295 292 292 293 293 293 293 294 294 295 296 297 298 299 300 301 302 302 302 302 302 303 302 300 300 300 299 299 298 297 296 292 293 292 293
296 297 296 295 293 295 293 293 295 294 293 293 295 295 297 300 299 301 302 302 301 302 303 303 304 305 305 306 305 305 303 304 303 302 302 302 303 305 307 307 308 307 307 307 308 307 304 304 303 303 303 302 302 299 297 296 295 294 293 293 294 294 295 294 292 291 292 292 292 293 293 294 295 295 296 298 299 300 301 301 301 301 301 302 302 301 300 300 300 300 299 297 297 295 293 293 292
295 296 297 296 297 294 293 294 295 295 295 295 293 290 293 296 297 298 302 300 301 302 301 303 304 305 304 302 303 304 305 305 304 303 302 302 303 305 307 307 307 307 307 308 307 306 305 304 304 303 302 301 300 298 296 296 295 294 293 293 292 294 291 291 292 291 291 292 292 292 292 293 294 294 295 297 298 299 300 300 301 301 301 300 301 301 300 300 300 299 299 300 299 299 295 293 291
293 293 296 297 295 295 295 293 294 290 289 294 294 289 287 296 296 298 300 300 301 304 304 304 305 304 303 303 304 303 303 303 303 304 303 302 303 305 306 306 307 307 307 308 307 305 305 305 303 302 301 300 299 298 297 296 295 295 295 297 297 296 294 295 296 295 294 293 293 292 292 292 293 293 295 296 297 297 299 299 300 300 300 300 299 299 298 298 298 299 299 299 299 297 296 293 291
292 293 293 295 295 295 295 295 295 293 294 296 293 295 289 289 296 299 300 297 299 300 303 305 306 305 303 303 304 304 303 303 302 302 302 303 303 304 305 306 307 307 308 308 305 305 305 304 302 301 300 298 297 297 297 296 296 296 298 300 300 299 299 296 294 292 293 292 292 292 292 291 292 293 294 295 295 296 297 297 298 298 298 298 297 298 297 297 297 296 297 297 296 297 297 294 291
294 291 295 295 296 296 295 295 294 293 290 289 291 295 289 290 295 294 296 297 297 299 302 304 305 304 303 305 303 302 302 302 302 302 301 301 302 304 306 306 307 307 307 307 306 305 305 304 302 300 299 297 297 296 296 296 297 299 301 302 302 301 297 294 292 291 291 292 291 291 291 291 291 293 293 293 294 294 294 296 296 296 296 295 296 296 295 295 294 294 294 294 295 295 296 295 293
292 293 295 294 295 295 296 294 295 292 290 287 290 293 287 288 295 293 296 297 297 300 302 304 304 303 304 304 302 299 298 299 300 301 301 302 303 304 306 308 307 307 307 307 307 306 304 302 300 299 298 297 296 295 294 295 297 297 297 299 298 293 293 292 292 291 291 291 290 291 291 291 291 291 292 292 293 293 293 294 295 295 294 293 293 294 294 294 294 294 294 294 294 294 293 294 293
295 297 298 296 296 295 294 294 293 291 285 288 292 293 291 286 296 295 294 297 299 301 303 303 303 305 304 301 300 301 298 298 299 299 300 301 303 304 306 307 307 307 307 306 306 303 300 300 299 298 297 297 295 294 294 294 296 296 296 296 294 292 291 291 291 291 290 291 290 290 291 291 291 291 291 291 291 292 292 293 293 293 292 292 292 292 292 292 292 292 292 293 293 293 292 292 292
298 297 296 295 293 293 293 291 292 286 285 288 288 291 293 284 291 295 300 298 296 299 300 302 303 304 303 302 299 298 297 298 299 298 299 300 301 303 305 305 306 305 305 305 305 302 299 299 298 297 296 296 295 294 294 295 295 294 294 293 292 291 290 290 291 291 291 291 291 291 291 291 290 290 290 290 290 291 291 291 291 291 291 291 291 291 291 291 291 291 291 291 291 292 292 291 290
297 297 295 288 286 286 284 287 283 285 284 287 287 288 288 287 292 297 298 299 300 300 301 302 304 303 305 302 300 298 298 298 298 298 299 299 300 301 303 304 305 304 304 304 304 302 299 298 297 296 295 295 295 295 294 294 294 293 293 292 292 291 290 291 292 292 292 292 291 291 290 290 289 289 289 289 290 290 290 290 290 290 290 290 290 290 290 291 291 291 291 291 290 290 290 291 290
295 293 291 287 282 282 280 283 280 281 285 285 288 291 286 292 295 299 299 301 303 303 302 303 303 303 304 303 301 298 298 298 298 298 299 299 300 301 303 304 304 304 304 303 303 302 299 297 297 296 295 295 295 295 295 293 293 292 292 292 291 290 291 292 293 292 292 293 292 291 291 290 289 290 290 290 289 290 290 291 291 290 290 290 290 290 290 290 291 290 290 289 289 289 290 290 290
294 301 294 290 288 284 280 282 281 283 285 284 287 284 286 287 293 297 300 301 299 300 302 303 302 302 302 301 299 298 298 297 298 298 299 299 300 301 303 304 304 304 303 303 303 302 299 297 296 296 295 295 294 294 294 293 292 291 291 291 290 290 291 291 292 293 293 292 292 292 291 291 291 290 290 289 289 289 289 289 289 289 289 289 289 289 289 289 290 289 289 288 288 289 289 288 288
296 296 296 290 288 291 285 285 284 283 285 284 282 285 292 293 299 298 299 298 299 299 299 298 299 300 300 299 299 299 298 298 297 298 298 299 300 301 303 304 304 304 303 303 303 301 299 298 297 296 295 295 295 294 293 292 291 291 290 290 289 290 290 292 292 293 293 293 292 291 291 291 290 290 289 288 288 289 288 288 288 288 288 288 288 288 288 288 289 288 288 288 287 288 288 287 287
293 293 289 292 293 293 284 280 280 280 283 282 289 287 291 296 297 299 300 299 299 298 297 298 299 301 302 301 301 301 299 299 298 298 298 299 299 300 303 304 304 303 303 303 302 300 299 298 297 296 296 295 294 294 293 293 292 290 289 289 289 289 290 291 291 291 292 292 292 292 291 290 290 289 288 288 288 288 288 288 288 288 288 288 288 288 288 288 288 288 287 287 286 287 287 286 286
293 288 292 292 296 296 289 284 284 284 281 284 285 285 288 288 286 295 296 296 298 299 300 300 301 301 299 301 303 303 300 299 299 299 299 299 299 299 302 304 304 304 303 303 303 302 300 299 298 297 295 294 293 293 293 292 291 290 289 289 289 289 289 291 292 291 291 291 291 291 291 289 289 289 288 288 288 288 287 287 287 287 287 287 287 287 287 287 288 287 287 286 286 286 285 284 285
295 293 301 292 287 285 290 286 280 280 279 282 286 287 287 290 290 295 295 295 297 299 300 300 300 301 301 302 303 301 299 298 298 297 297 297 298 298 300 302 304 304 304 303 303 302 300 299 299 298 296 295 294 293 292 292 291 290 290 289 289 289 290 290 291 291 291 290 290 290 289 289 289 288 287 287 287 287 287 287 287 286 287 286 287 286 286 286 287 286 285 284 284 284 283 283 283
295 295 293 295 292 289 286 287 287 286 281 279 283 285 285 295 294 295 296 298 299 300 301 300 301 302 303 304 304 302 299 298 298 297 297 297 298 298 299 301 302 303 303 303 303 302 299 299 298 298 297 295 293 293 292 291 291 290 289 289 289 290 289 290 290 290 289 290 290 289 289 288 288 287 287 287 287 286 286 286 286 286 286 286 285 285 285 285 285 284 284 283 282 282 282 282 282
290 292 291 291 289 291 291 290 286 286 283 282 282 282 288 296 299 297 298 299 300 301 302 304 304 304 304 305 305 303 300 299 298 298 297 297 297 297 299 300 302 304 304 303 303 302 300 299 297 297 295 294 293 293 292 291 290 289 288 288 288 288 288 290 290 290 289 289 289 289 289 288 288 287 287 287 286 286 286 286 285 285 285 285 285 284 284 284 284 283 283 282 281 281 281 281 281
294 292 290 292 288 286 284 283 287 285 286 282 281 281 289 297 295 300 300 301 302 303 304 304 305 305 305 304 303 302 301 299 299 298 297 297 297 297 298 299 301 302 302 302 302 301 298 297 296 296 295 294 292 292 291 290 289 288 288 288 288 288 288 289 289 289 289 289 288 288 288 288 287 287 287 287 286 286 286 285 285 285 285 285 284 284 283 283 283 282 281 281 280 281 281 280 280
Wind_Speed
5 2 1 2 2 3 3 3 3 3 2 4 4 2 4 1 2 3 4 4 3 3 2 3 3 4 3 3 5 6 3 4 4 3 4 3 2 3 3 3 3 1 4 5 6 8 8 6 3 3 9 12 10 10 9 10 11 12 12 11 12 13 14 13 13 13 13 13 14 15 15 15 16 16 17 17 17 17 16 16 16 16 16 16 15 15 16 16 16 16 16 17 17 18 19 19 19
3 1 1 3 1 1 2 3 3 2 3 5 4 1 5 3 2 4 5 1 4 4 3 4 4 4 4 4 4 3 6 5 4 3 2 2 2 3 3 2 1 3 4 4 5 5 6 8 3 3 7 12 11 10 9 10 11 11 11 11 11 13 13 13 13 13 13 14 14 15 15 15 16 16 17 17 17 17 16 16 16 15 16 16 16 16 16 16 16 16 17 18 19 19 19 19 19
2 2 3 2 1 1 4 2 1 2 2 4 4 2 2 4 3 4 4 6 8 7 6 6 4 1 2 3 4 4 4 1 1 1 1 2 3 5 4 2 0 2 4 3 5 5 5 6 2 3 5 10 11 10 10 10 11 12 12 11 12 13 13 13 13 13 13 14 15 15 15 16 16 16 16 16 17 17 16 16 16 16 15 16 17 16 16 16 16 16 17 18 18 18 18 18 19
3 3 2 1 2 2 0 1 2 1 4 4 4 4 4 4 5 5 6 8 7 4 2 5 3 2 3 4 2 1 5 4 1 1 3 2 3 4 4 2 1 3 4 4 4 4 4 5 2 4 4 6 10 10 11 9 10 11 11 11 11 12 12 13 12 13 13 13 15 16 15 16 16 16 16 16 16 16 16 16 16 15 16 16 16 17 16 16 16 17 17 17 18 18 18 19 20
1 2 2 3 3 2 1 2 2 1 4 3 3 6 4 4 8 7 6 4 3 2 1 1 2 2 2 3 0 3 3 4 3 2 1 2 3 3 2 1 3 5 4 4 5 4 5 5 4 5 3 3 9 9 9 9 7 8 10 10 11 11 12 12 13 12 13 13 15 16 15 15 15 16 16 16 16 15 15 16 16 15 15 16 16 16 16 16 18 18 18 19 19 20 20 21 20
0 1 4 1 1 1 2 3 3 4 5 2 4 6 6 6 9 7 6 3 0 4 1 2 3 4 3 2 3 1 2 2 4 2 1 2 4 4 2 3 4 5 5 4 4 4 4 5 4 4 4 4 6 8 8 8 8 9 10 11 10 11 12 12 12 11 13 14 15 15 15 15 15 15 16 16 15 15 15 16 16 15 15 16 16 16 16 17 18 19 19 20 22 21 20 20 19
1 1 2 4 4 2 1 3 4 4 4 3 3 7 7 7 5 6 6 5 1 2 2 1 1 2 4 3 2 2 3 2 2 3 1 4 5 4 1 4 5 6 6 4 4 4 4 4 4 5 3 4 2 8 8 8 9 8 9 10 10 10 11 12 12 11 13 14 14 15 15 14 14 15 15 15 14 14 15 16 16 15 15 15 16 15 17 17 17 19 21 22 21 19 19 18 17
2 2 2 1 3 2 3 2 4 2 3 2 4 2 7 7 4 6 7 7 6 5 5 2 2 4 5 1 1 3 1 2 3 3 2 3 4 3 3 3 5 6 7 5 4 4 5 3 4 5 1 1 3 6 7 8 7 6 7 10 9 9 11 12 12 10 13 14 14 15 15 14 14 14 14 14 14 14 15 15 16 15 15 15 16 16 17 18 19 20 21 20 19 18 18 17 17
4 2 1 2 3 2 3 2 2 2 1 2 2 3 3 2 4 4 7 2 2 1 4 6 1 4 6 4 1 4 2 1 1 3 2 3 3 2 3 4 3 5 7 6 4 6 6 4 3 1 2 2 1 6 8 8 7 7 7 8 9 9 10 12 12 11 11 13 14 14 15 14 14 14 14 14 14 14 15 15 15 15 16 16 16 16 17 17 18 20 19 18 18 18 17 17 17
2 3 3 2 1 4 2 2 2 3 1 2 1 5 4 4 4 3 5 5 2 4 3 3 1 3 3 4 4 5 3 2 3 1 2 2 2 3 4 3 1 3 6 6 5 6 3 5 4 3 2 5 3 2 8 7 8 8 7 8 8 9 10 12 12 11 11 13 14 14 14 14 13 13 14 14 15 15 15 15 15 15 15 16 15 16 17 17 17 18 18 18 18 18 18 17 17
1 3 2 3 2 4 3 4 1 4 3 1 3 3 2 5 4 3 1 1 2 2 5 1 4 4 4 3 2 4 3 5 5 3 1 1 1 4 2 4 2 2 4 7 6 4 4 5 6 5 4 2 1 1 2 4 7 8 6 5 8 8 9 11 12 10 12 13 14 14 14 14 14 14 15 15 15 15 15 15 14 14 15 15 15 16 16 17 17 17 18 18 18 18 18 18 18
2 1 2 2 3 1 4 3 3 3 2 2 6 5 3 6 4 4 5 5 5 3 4 7 1 3 4 1 4 5 6 7 4 3 1 2 1 2 1 2 3 2 2 4 5 3 5 5 7 4 4 3 3 2 4 2 4 6 6 6 8 9 10 11 11 10 12 13 14 14 14 14 14 15 15 16 15 15 15 15 15 15 15 15 15 16 17 17 18 18 18 18 18 19 19 19 18
1 1 3 2 2 1 3 3 4 1 4 7 7 4 3 6 7 5 6 1 5 5 5 5 3 2 3 2 4 6 7 6 4 2 0 3 3 2 2 4 4 5 6 6 5 5 4 5 5 4 5 3 2 2 2 2 2 4 6 7 8 7 9 10 11 10 12 13 12 14 14 13 14 15 16 16 15 15 15 16 16 16 15 15 15 16 17 17 17 18 18 19 19 19 19 19 19
1 1 1 2 1 2 4 3 3 5 5 6 3 5 6 4 4 1 5 6 7 5 3 2 2 1 1 1 5 5 5 6 4 1 1 4 3 3 4 6 6 6 6 6 6 5 6 6 3 5 3 4 4 3 2 1 2 3 7 7 7 7 7 9 10 9 11 12 11 12 12 12 13 15 15 15 15 14 14 16 17 17 16 16 17 17 17 18 18 19 19 19 20 20 20 19 19
2 1 3 4 3 3 1 4 8 7 4 9 6 7 5 2 1 2 7 6 6 5 4 1 1 2 2 5 5 4 7 7 5 3 3 5 4 5 5 6 5 6 5 5 6 6 6 4 4 5 2 4 5 5 4 4 1 4 6 6 8 7 7 8 9 9 10 11 12 12 12 12 13 13 13 13 14 12 12 13 15 16 17 18 18 18 19 19 19 19 19 19 20 20 20 19 19
2 2 2 3 4 4 4 3 0 4 3 7 4 0 5 3 1 4 1 4 3 2 2 4 2 2 3 3 4 4 6 7 4 4 5 8 6 5 5 5 6 5 5 6 5 5 4 4 3 3 1 3 1 3 5 6 4 5 6 7 7 8 7 8 9 10 10 11 12 13 13 12 12 12 12 11 11 12 11 13 14 17 18 19 18 18 18 18 18 19 19 19 19 19 19 19 18
0 1 3 2 4 5 5 4 8 5 4 5 5 7 8 5 2 2 2 2 3 4 4 1 3 1 2 3 4 4 5 3 3 5 8 9 7 5 4 4 6 4 2 5 4 4 4 4 3 3 2 3 2 2 4 7 6 7 6 6 8 8 8 8 9 9 9 10 11 12 11 10 11 9 10 11 11 11 11 11 14 17 17 18 19 19 19 19 19 19 19 19 19 19 19 19 18
2 4 2 4 2 7 7 8 9 4 4 8 8 9 6 6 5 3 2 3 0 2 4 2 2 5 1 3 2 3 7 8 7 9 8 8 8 8 6 6 7 5 4 4 3 3 2 2 2 3 1 2 2 1 2 4 6 7 7 8 7 7 8 9 9 8 8 8 9 10 8 8 7 8 10 11 10 12 11 12 13 15 17 17 17 18 18 18 18 18 17 16 15 13 12 9 11
0 2 2 3 3 2 1 3 5 2 3 8 7 3 4 3 7 4 5 5 4 5 6 5 5 5 4 4 4 7 9 9 10 11 11 11 9 11 9 7 9 6 4 4 3 2 1 1 2 1 1 1 1 2 1 2 6 7 8 7 6 7 8 8 8 9 8 8 8 8 7 7 8 7 7 7 9 12 12 13 13 14 15 15 16 17 17 18 17 17 16 14 13 12 9 7 7
2 3 4 2 2 4 1 2 5 2 3 8 7 4 3 2 1 4 4 3 3 8 7 6 8 9 9 7 7 8 9 10 11 11 12 11 10 10 10 11 9 9 6 3 3 1 1 1 0 1 1 1 1 1 1 3 5 8 6 6 5 6 7 7 7 8 7 8 8 6 6 7 8 7 10 14 12 10 10 13 15 14 15 15 15 13 15 16 17 15 12 11 10 8 7 7 7
1 3 2 2 1 2 3 1 2 1 3 5 5 4 4 3 2 5 3 4 8 9 9 7 8 8 8 9 9 9 9 10 11 10 11 11 11 9 9 9 8 5 3 2 3 2 1 1 1 1 1 1 2 1 1 1 3 5 6 7 8 6 6 6 6 6 7 8 8 6 6 7 8 8 9 7 7 10 10 10 9 9 9 10 11 10 10 9 9 8 8 8 7 8 8 8 7
3 4 4 2 1 2 3 1 1 0 3 4 5 8 5 4 2 5 6 8 5 3 3 7 7 2 6 11 10 9 10 11 11 11 12 12 12 10 5 2 2 2 3 4 3 3 2 1 1 1 3 2 2 1 1 0 1 4 5 6 7 7 6 6 6 5 7 8 7 7 8 8 8 8 8 8 8 9 9 9 8 8 8 8 8 7 7 8 7 8 8 8 8 8 9 8 8
3 1 1 1 3 2 2 2 2 2 4 6 7 3 4 6 3 1 6 13 0 4 4 2 2 1 2 6 10 10 10 11 12 12 12 12 11 10 8 5 5 5 4 2 1 1 0 1 1 2 3 2 2 2 2 1 1 2 5 8 7 7 7 8 7 7 7 8 7 7 7 7 9 9 8 8 9 5 7 8 8 8 8 7 7 8 7 7 7 8 8 9 8 9 9 9 9
2 5 3 2 2 4 1 2 3 2 3 4 2 2 3 4 8 2 6 12 5 4 1 1 2 0 2 8 10 11 11 11 11 10 9 9 9 9 6 6 3 0 2 2 1 2 1 2 2 4 4 3 3 3 5 4 1 0 3 2 7 6 8 8 7 6 4 7 8 6 3 7 5 8 8 8 8 5 3 6 8 7 6 6 7 7 8 7 8 8 9 9 9 8 8 8 8
5 6 3 3 0 2 1 2 2 0 2 2 2 5 2 2 2 2 9 10 7 3 1 1 1 3 5 7 9 9 9 9 9 9 3 2 3 4 3 3 4 3 5 4 3 3 3 2 3 5 5 5 5 5 7 4 2 1 0 2 1 4 6 6 6 6 5 3 6 8 7 6 6 4 8 7 7 5 3 5 5 7 7 5 7 7 8 8 8 8 8 8 7 7 7 7 7
3 5 4 4 3 3 3 4 2 2 2 1 4 2 1 0 1 8 16 3 4 2 2 2 3 5 6 8 9 9 9 10 9 9 10 5 4 6 7 6 5 7 5 3 3 3 2 3 4 5 5 5 5 6 8 6 3 2 2 2 3 2 4 4 6 5 4 5 2 5 6 6 6 5 4 7 8 8 6 5 5 5 5 4 5 6 6 7 8 8 9 8 8 8 8 7 6
2 5 4 5 2 2 1 1 2 1 1 1 3 3 2 2 2 7 4 2 1 3 3 2 4 6 6 5 6 7 8 10 11 8 8 7 7 8 7 6 6 6 4 5 4 3 2 3 4 4 5 6 5 7 9 8 5 3 3 3 3 3 3 5 4 4 4 4 5 6 6 8 8 7 5 5 4 5 7 7 6 6 6 4 5 7 6 7 7 8 9 9 8 8 7 5 6
2 4 6 6 4 3 3 2 2 2 3 1 2 4 1 2 3 9 4 2 1 3 4 4 5 5 5 6 6 6 6 6 7 8 12 12 9 8 8 7 7 5 5 5 3 2 2 2 3 2 4 5 6 7 7 8 6 4 4 4 3 4 4 5 4 3 4 5 6 7 7 6 9 9 7 6 7 7 6 7 7 7 6 6 5 7 8 8 8 9 11 9 9 8 7 6 6
3 3 4 1 3 5 4 2 1 3 2 1 1 5 8 7 11 5 4 2 1 3 4 5 5 5 4 5 5 6 7 6 7 7 10 8 6 6 8 6 5 5 3 3 3 3 4 4 3 3 3 4 7 6 5 5 5 5 4 4 4 4 4 4 5 3 2 5 6 8 8 8 8 10 9 9 7 8 6 7 8 7 7 6 7 10 11 10 9 9 9 7 7 7 8 7 6
1 4 1 3 3 4 4 2 1 3 2 0 2 5 4 9 17 6 3 2 2 3 6 7 5 5 5 5 6 6 6 6 8 8 7 6 5 6 7 6 5 4 3 3 4 4 3 3 3 3 3 3 4 2 1 4 4 5 5 4 2 2 3 3 4 4 1 2 4 7 7 6 6 6 8 7 6 7 7 7 10 9 7 8 7 8 9 9 9 9 10 8 7 7 8 7 7
2 0 2 1 2 2 2 3 2 4 2 1 2 6 5 2 1 3 3 3 5 8 8 7 6 6 6 6 6 7 8 8 8 9 7 6 6 5 6 6 6 5 3 4 5 5 5 3 2 3 2 4 4 3 2 4 4 5 5 4 3 3 3 3 3 2 4 3 3 6 6 6 6 8 8 7 6 6 6 8 7 8 8 8 8 8 9 9 9 9 8 9 8 7 7 7 7
2 3 3 1 3 3 3 3 0 3 3 1 3 7 10 10 4 4 2 2 3 8 8 7 6 6 7 6 8 8 8 7 8 7 8 7 7 6 7 7 6 6 6 5 5 5 5 4 5 5 5 5 5 4 3 4 5 4 5 5 4 4 3 4 3 3 2 3 4 5 7 7 7 9 8 7 8 7 6 7 7 8 8 7 8 8 9 9 8 8 8 9 11 8 8 8 7
2 3 1 2 1 1 2 2 1 3 1 2 7 6 2 5 1 3 2 3 3 6 8 7 7 8 8 8 8 7 6 8 8 10 9 8 8 7 7 7 7 6 6 6 6 6 5 5 5 6 6 7 6 5 5 5 5 5 5 5 5 5 4 4 4 4 3 4 3 5 6 6 7 8 8 7 8 8 7 7 8 9 8 8 8 7 8 8 8 8 8 7 9 10 9 10 9
3 2 2 1 3 2 2 4 2 2 3 5 6 6 12 6 2 4 4 4 4 6 9 9 8 7 9 8 8 8 9 9 11 12 12 11 8 9 7 7 7 7 6 7 7 7 6 6 6 5 5 5 5 6 5 5 5 5 5 5 4 4 5 4 4 4 3 3 3 4 4 4 6 8 8 7 7 7 8 8 8 8 8 8 9 8 8 8 8 9 10 8 8 9 9 9 9
4 4 2 3 2 5 4 2 2 2 2 6 5 11 16 15 13 11 7 7 6 10 10 10 8 7 8 9 9 10 10 11 12 9 12 12 10 10 8 8 7 7 6 8 8 7 7 6 6 5 5 6 6 6 6 6 6 6 6 6 5 5 3 4 4 3 4 3 4 5 5 4 4 6 6 7 8 8 8 9 9 9 8 8 9 9 7 7 8 9 11 10 8 7 8 9 9
3 5 2 1 3 3 3 1 2 2 5 6 9 10 13 13 12 12 10 6 8 11 11 10 10 10 11 10 9 9 10 12 7 7 10 10 10 10 9 8 8 8 8 9 9 7 7 6 5 5 5 6 6 6 6 5 4 4 6 5 5 4 3 3 4 3 2 4 5 6 6 5 5 6 6 5 7 8 9 9 9 8 8 9 10 10 9 8 11 12 11 11 11 9 8 8 8
6 4 2 1 3 5 2 1 3 1 3 11 12 12 16 18 15 15 14 4 6 10 12 12 11 10 11 11 11 11 11 10 5 7 8 10 11 11 10 9 9 9 10 10 10 9 9 7 7 7 6 6 6 7 6 6 6 5 4 5 6 3 3 2 4 4 3 3 4 6 5 5 6 7 7 6 6 9 8 9 9 8 8 8 9 10 9 11 10 10 10 9 11 11 8 7 8
4 4 2 3 3 4 3 2 2 1 3 4 3 6 14 16 15 15 13 11 15 14 13 14 15 14 12 13 13 11 10 4 6 6 9 10 11 12 11 9 10 12 12 12 11 11 9 8 8 7 6 7 6 6 7 6 5 4 5 5 7 6 4 3 4 3 4 3 3 4 5 5 6 6 7 6 6 8 9 8 8 9 8 8 8 9 10 10 11 11 10 9 6 9 8 7 4
3 2 2 2 4 5 1 2 1 1 2 10 8 9 14 16 16 17 17 16 15 14 14 16 14 14 13 11 12 10 7 8 8 8 9 10 12 13 11 10 10 11 12 12 12 11 9 8 7 7 7 7 6 6 6 5 4 4 4 4 4 5 3 3 3 4 4 4 3 3 3 4 4 5 6 6 6 7 8 8 8 8 8 9 10 10 10 11 10 12 11 11 9 5 6 2 1
4 3 3 4 2 1 2 3 2 3 3 5 7 13 15 16 17 21 19 15 15 12 12 15 14 17 18 15 8 8 11 9 10 11 11 11 12 12 11 11 10 11 11 11 12 12 8 8 8 8 7 7 7 5 4 6 7 8 7 7 5 4 3 4 5 5 4 4 4 3 3 3 3 4 5 6 5 7 8 8 8 7 8 8 10 11 11 10 10 10 9 9 11 10 6 4 2
2 5 4 2 2 3 4 2 2 4 1 1 10 12 12 8 8 6 5 6 9 14 10 15 16 16 16 7 7 8 11 9 9 10 11 12 13 14 14 11 10 12 12 13 13 12 6 9 9 9 8 8 6 6 7 8 9 8 7 8 7 7 5 4 5 3 3 3 4 4 4 3 4 4 5 5 5 7 7 8 9 8 8 8 8 9 10 10 10 9 10 10 9 10 8 4 2
4 6 8 5 2 3 1 3 7 5 2 3 5 8 3 1 4 6 4 2 4 5 7 13 15 13 8 12 15 11 9 8 9 12 13 14 14 13 13 13 13 13 13 13 12 11 9 9 9 9 7 7 7 9 9 8 8 9 8 7 6 4 5 6 7 8 7 6 5 4 4 3 3 5 5 5 5 6 7 7 8 9 9 8 8 8 8 8 8 9 9 8 7 6 8 7 4
3 3 6 5 2 2 1 0 1 3 3 2 3 4 11 4 8 7 6 3 8 6 8 14 11 5 5 8 8 8 9 9 9 9 11 13 14 14 15 14 13 13 13 12 11 10 10 9 9 9 8 7 7 9 10 7 7 7 9 10 10 11 10 6 4 5 5 5 5 6 5 4 3 5 5 5 5 5 6 6 7 7 7 6 6 7 8 8 7 6 5 5 5 6 8 7 7
4 2 2 5 5 5 3 3 4 5 3 3 2 3 7 15 4 3 1 2 8 11 15 14 9 3 4 6 7 7 7 8 8 10 11 12 13 14 15 14 14 13 12 13 10 9 11 11 10 9 7 7 7 9 10 8 8 8 8 7 6 6 6 8 8 6 4 5 6 6 5 4 3 5 5 5 5 5 5 6 5 6 6 6 6 6 7 6 6 4 3 3 5 6 6 8 8
1 1 1 5 3 2 4 1 1 1 5 5 3 2 3 9 1 3 2 3 7 14 15 14 7 2 3 6 3 3 4 5 7 8 10 11 13 13 13 14 13 12 12 12 12 10 10 9 9 9 8 7 7 9 9 8 6 7 7 7 7 4 5 5 6 6 5 5 6 5 5 5 4 5 5 5 5 5 4 6 6 6 6 6 5 5 5 6 7 7 5 5 5 4 4 6 7
1 4 7 6 6 5 1 2 0 1 2 7 7 7 4 15 7 7 2 4 9 10 12 11 3 4 6 4 1 1 2 3 5 7 8 9 10 11 11 11 12 12 12 12 12 10 9 8 9 10 9 7 7 8 7 8 5 3 3 5 6 6 6 6 6 7 6 6 6 6 6 5 5 5 5 5 5 5 5 6 6 6 6 6 5 6 6 6 6 6 5 4 4 5 4 4 5
12 7 8 5 5 3 3 3 0 0 6 5 10 11 5 8 4 8 8 7 7 6 6 4 2 3 2 1 1 1 3 4 4 5 5 6 7 9 11 12 12 12 12 12 12 9 8 8 10 11 10 7 8 9 9 8 6 5 5 6 7 9 9 9 8 8 7 7 7 6 6 5 5 6 5 5 5 5 5 5 6 6 6 5 6 7 6 6 6 5 5 6 5 6 5 5 6
5 3 4 4 2 2 1 1 0 2 6 4 5 2 3 8 5 4 2 2 3 4 6 6 4 2 1 1 0 1 2 2 4 5 5 7 8 9 11 12 13 13 13 13 13 9 9 9 9 11 9 9 9 9 9 9 7 6 5 6 6 7 11 10 10 11 11 11 10 8 6 6 6 5 5 5 5 5 5 5 6 7 6 6 6 5 6 6 6 6 6 5 5 5 6 6 6
2 5 5 5 2 0 2 2 4 6 6 2 3 1 4 18 14 6 8 10 9 8 9 7 6 4 2 3 2 1 2 3 4 5 6 7 9 11 12 13 14 15 14 15 14 11 9 9 11 11 10 10 10 10 10 10 7 6 6 7 6 6 7 8 10 9 9 10 9 8 8 7 7 6 6 6 6 6 5 6 6 6 6 5 6 6 6 6 6 6 6 6 6 6 5 6 6
5 10 9 5 4 4 7 2 2 4 2 1 3 3 9 11 12 15 21 22 16 10 10 9 8 7 4 3 2 2 2 3 4 5 6 8 9 10 12 13 14 14 15 15 15 12 10 9 12 12 11 10 10 10 10 9 7 6 6 7 6 6 6 6 7 9 9 7 8 9 9 8 8 8 8 7 7 6 5 5 6 6 6 6 6 6 6 5 5 6 6 7 7 5 5 6 7
11 1 9 5 5 3 4 3 5 3 1 2 3 1 6 1 3 3 5 8 6 4 5 4 7 7 6 4 3 4 4 4 5 6 7 9 10 12 12 13 13 14 15 15 15 14 11 11 11 12 11 11 11 11 9 9 7 6 5 4 5 7 5 5 5 6 8 9 8 9 8 7 7 7 7 6 7 6 6 6 6 7 7 7 7 6 5 6 6 6 6 6 6 5 6 6 6
1 1 4 1 8 3 6 1 1 2 1 2 4 7 3 7 5 6 4 6 7 3 5 4 9 9 7 7 9 8 6 5 6 6 7 9 10 11 11 12 13 14 16 15 16 14 12 12 13 13 12 12 12 11 10 9 8 6 7 6 7 6 5 5 5 5 6 7 9 9 9 8 7 7 6 7 6 6 7 7 7 7 7 7 6 7 7 6 6 6 6 6 7 4 6 8 6
7 6 6 3 5 3 5 1 4 2 0 10 3 8 9 8 17 16 18 14 10 4 4 5 10 10 5 9 10 9 7 6 7 7 8 9 9 11 11 12 12 14 15 16 17 14 14 13 13 14 12 11 12 11 11 11 9 9 8 8 8 7 7 9 8 10 8 7 7 8 8 8 8 7 7 6 7 7 6 7 8 7 7 7 7 7 7 7 6 6 6 7 7 7 7 7 6
8 6 6 3 0 4 3 6 1 2 7 6 3 8 13 1 12 6 4 6 12 9 10 9 9 5 6 10 10 5 6 8 8 8 7 8 10 12 12 12 14 14 15 16 17 15 13 12 14 14 12 13 11 11 11 11 10 9 9 10 9 10 8 8 7 9 8 8 7 6 7 8 8 7 7 6 7 7 7 8 7 7 7 7 7 7 7 7 6 6 6 6 6 7 7 6 5
2 1 3 6 4 4 4 1 6 4 4 5 5 5 11 11 15 3 2 3 5 11 14 11 12 11 11 11 9 4 5 6 7 8 8 9 10 11 13 13 13 14 15 15 15 15 12 12 13 13 14 14 13 10 9 7 9 6 7 10 11 10 9 8 7 7 8 9 9 8 8 8 8 8 7 8 8 7 7 6 7 8 7 7 7 8 7 6 6 7 6 6 6 7 7 7 6
2 1 2 4 3 2 7 5 1 1 5 1 5 2 12 9 6 5 10 9 10 10 6 10 14 13 11 10 5 4 5 7 8 8 8 9 10 12 13 13 14 15 15 14 15 15 14 13 13 12 12 11 11 11 10 10 10 8 7 7 8 8 9 9 8 9 8 8 8 9 9 9 9 8 8 8 8 8 8 9 7 8 8 7 8 7 7 7 6 6 6 6 6 7 7 7 6
5 6 7 3 1 3 2 1 2 2 2 3 4 9 12 4 9 8 9 11 10 9 9 8 9 10 11 11 5 5 6 5 6 7 8 9 10 10 11 11 11 12 12 13 15 16 14 12 13 13 13 12 12 11 11 10 8 8 10 10 9 9 9 8 9 9 9 9 8 8 8 8 9 8 9 9 9 9 9 8 8 8 8 8 9 8 7 7 6 7 5 6 7 6 7 6 6
9 14 13 15 10 7 6 6 2 1 3 5 3 12 14 2 2 8 6 8 8 9 11 8 8 10 5 2 2 2 5 7 6 6 6 8 9 10 10 10 10 11 13 16 16 14 12 12 12 12 12 11 11 10 10 10 9 8 11 10 10 9 9 8 10 10 9 9 8 8 8 8 9 9 9 9 10 8 8 9 9 9 8 8 8 8 8 7 7 7 7 5 6 7 7 7 7
Wind_Direction
292 288 266 235 234 253 267 14 250 65 245 75 120 221 88 340 349 181 143 157 172 72 58 130 106 151 266 2 12 70 49 297 10 293 46 57 42 52 42 359 4 80 156 134 140 141 140 110 92 62 118 120 123 123 119 114 116 125 129 124 117 115 114 112 103 100 95 87 82 77 73 69 66 65 63 61 58 57 59 62 62 63 65 69 72 76 81 81 81 82 85 84 84 83 80 78 75
287 291 208 225 231 256 151 299 92 152 103 133 78 286 97 127 208 163 137 148 31 85 108 118 118 82 78 54 71 139 88 34 348 10 30 51 31 80 63 28 13 119 136 129 133 138 124 115 48 45 116 124 128 126 121 119 121 122 122 119 115 113 112 108 103 100 97 91 85 79 76 73 69 65 65 63 62 57 59 64 66 66 68 73 78 79 79 80 79 82 85 85 84 83 81 79 79
324 279 187 232 150 354 114 271 198 74 135 94 108 90 118 173 154 125 72 94 101 102 97 98 108 142 228 235 203 312 92 11 122 82 323 45 182 93 52 47 22 173 130 128 132 128 131 88 43 35 68 126 127 126 121 120 121 122 123 123 119 116 115 112 107 102 97 92 87 84 79 76 72 68 66 66 64 61 61 63 69 69 70 76 80 80 79 80 83 86 86 87 83 81 81 82 79
269 8 279 288 148 240 223 81 62 354 86 70 130 138 183 147 129 106 99 107 118 133 164 153 211 49 284 222 53 127 83 133 5 144 138 186 16 21 38 32 181 198 141 140 137 128 131 105 39 32 46 122 126 125 120 119 121 122 122 117 114 115 112 108 106 101 97 91 88 86 82 78 74 72 70 68 66 66 64 65 68 71 75 78 80 81 82 83 86 88 90 88 84 84 84 81 77
248 45 323 260 264 90 9 41 49 276 105 176 100 144 174 165 131 134 123 132 142 216 223 118 161 65 349 15 27 294 98 66 172 268 2 21 5 5 349 60 180 171 146 157 141 129 118 58 49 12 18 74 130 120 115 113 114 108 109 110 113 114 112 111 107 104 101 94 89 86 83 78 75 73 70 69 71 68 68 69 71 74 77 78 80 82 84 85 86 87 86 87 85 80 74 74 70
230 54 34 302 7 42 184 161 128 75 45 6 138 148 160 155 148 145 135 166 126 234 310 240 332 150 175 54 343 3 109 174 92 166 283 76 346 338 338 166 186 162 147 161 150 153 131 87 56 9 3 29 124 119 113 111 108 106 112 112 111 112 113 110 106 106 101 95 90 86 83 80 76 73 70 70 72 70 72 73 76 77 78 80 80 83 86 87 84 81 82 80 75 73 73 74 73
328 219 52 98 110 255 6 81 92 95 93 323 66 135 158 150 133 157 151 158 129 174 144 305 201 176 161 129 157 40 8 344 203 72 272 9 323 316 261 169 185 159 136 153 161 130 128 96 76 7 11 359 99 132 127 118 114 107 112 110 110 114 116 114 108 106 105 99 93 89 86 83 80 78 76 76 75 75 76 79 81 81 80 82 84 85 87 85 85 78 75 75 77 77 77 76 78
116 259 16 184 59 318 93 77 91 348 102 288 352 115 139 142 140 190 166 200 158 208 164 187 236 287 57 284 199 102 34 286 7 41 4 315 311 292 238 197 174 158 139 150 150 144 123 86 61 16 358 332 347 151 140 127 119 114 112 111 115 120 122 119 115 114 111 105 100 96 92 88 85 82 81 81 80 79 81 84 85 84 84 84 84 87 85 86 84 81 80 81 81 80 79 79 76
26 46 249 189 94 69 128 96 63 31 77 207 202 317 8 113 167 179 172 194 92 251 163 170 147 241 134 166 70 112 148 78 49 27 334 313 298 230 217 223 184 153 153 153 148 145 159 117 101 29 38 333 272 165 151 140 130 121 116 119 123 124 124 120 120 114 107 107 102 100 97 93 89 87 87 85 82 81 81 84 86 87 87 87 87 87 88 88 84 85 86 85 82 79 77 75 73
90 308 135 64 128 113 122 133 197 112 106 130 174 158 176 165 172 258 179 181 166 168 131 40 186 302 142 169 135 173 151 152 122 166 2 331 314 191 249 224 148 178 177 136 147 159 151 139 168 156 93 73 48 145 162 146 140 131 125 125 126 125 128 124 123 125 126 111 106 102 99 96 92 91 89 88 84 81 81 81 82 85 88 90 91 91 91 91 92 90 85 81 79 77 75 73 71
138 58 351 165 132 133 177 144 179 137 179 137 219 186 162 171 183 182 213 57 111 174 140 166 197 197 194 125 44 52 93 147 169 153 54 214 60 177 169 354 305 248 168 132 147 166 168 162 167 153 143 99 165 29 343 164 148 139 133 127 125 127 131 131 133 131 125 116 110 104 101 96 92 90 89 87 86 83 82 81 81 82 85 88 89 89 91 93 93 90 82 80 79 77 75 73 73
161 149 200 152 168 296 136 155 160 136 150 200 170 166 179 176 188 180 182 191 170 192 178 185 65 128 184 144 141 135 124 163 161 104 96 153 91 89 99 76 63 55 137 175 120 111 196 164 178 144 153 149 144 129 5 342 147 135 128 125 131 132 140 138 133 132 124 120 115 108 102 98 95 92 89 86 83 83 81 81 81 82 84 86 89 90 91 92 89 86 84 83 81 79 78 76 75
28 260 153 163 75 282 81 162 150 140 182 199 171 152 149 174 194 201 174 79 163 175 194 186 53 263 190 177 76 131 160 146 152 172 193 161 130 112 97 94 65 66 53 58 47 57 48 193 168 179 138 131 174 167 25 37 144 142 129 128 136 135 139 136 134 132 128 118 115 109 103 100 98 95 92 89 86 83 81 80 80 80 82 84 86 88 89 88 87 86 85 84 82 80 78 75 72
218 321 215 170 332 115 158 98 114 191 202 146 83 122 179 193 206 304 163 182 180 202 69 54 182 245 294 168 147 166 146 140 163 173 174 147 128 102 85 88 98 81 47 56 60 39 62 51 129 163 163 152 195 155 127 70 65 180 132 135 134 135 136 137 135 131 125 122 119 109 108 103 100 98 95 92 88 84 85 84 82 83 84 84 85 86 86 85 85 86 84 82 80 78 75 73 69
98 235 76 107 117 168 143 174 182 198 175 155 135 156 175 239 360 227 206 219 162 53 105 71 335 239 105 221 126 138 133 145 160 151 165 144 131 106 92 100 94 75 78 74 61 53 51 30 72 94 99 205 214 191 198 144 166 165 136 139 139 136 132 127 129 129 123 123 118 112 109 106 102 96 94 95 94 88 86 85 86 89 89 87 87 87 87 86 86 85 82 81 80 78 76 73 69
101 152 85 155 147 205 162 230 338 213 155 159 130 219 176 96 212 189 157 346 72 64 216 156 201 297 344 342 63 89 112 137 156 151 163 146 132 105 109 121 96 74 63 53 61 52 44 40 32 83 67 111 121 251 214 192 153 161 144 140 139 134 129 127 129 127 124 126 121 119 117 116 111 105 103 95 86 79 75 87 89 92 93 93 93 92 90 89 87 86 86 84 81 79 74 70 66
220 266 166 126 179 212 149 193 165 193 113 131 127 170 185 174 117 319 336 268 216 141 212 122 182 150 293 40 77 99 124 131 180 159 159 157 151 147 138 128 121 112 86 78 60 55 48 33 28 85 48 90 67 317 240 208 143 147 148 136 138 130 126 120 117 116 122 128 129 129 140 130 122 122 118 107 101 87 79 82 91 93 95 96 96 96 95 93 92 92 90 88 85 81 76 68 62
255 191 196 201 75 195 160 188 184 11 182 155 170 186 186 172 167 138 189 173 46 127 223 152 197 234 217 90 93 123 140 159 174 170 166 170 173 166 169 165 161 163 145 132 72 44 39 5 5 39 76 57 99 195 239 215 176 194 185 167 159 139 129 134 143 140 138 139 137 153 146 136 127 122 114 115 108 105 88 82 88 94 95 94 94 93 92 93 93 93 90 85 82 80 82 80 72
153 104 234 243 169 81 192 135 137 174 148 156 150 154 256 150 167 154 218 180 192 221 214 203 231 197 151 173 158 161 156 165 177 181 178 180 183 180 170 171 186 153 163 140 114 63 27 269 29 34 41 38 172 163 240 235 218 197 183 178 156 148 149 164 159 155 159 155 164 167 159 146 132 127 122 102 101 88 95 92 90 91 92 91 90 91 92 91 91 89 85 80 78 76 72 71 68
47 245 201 228 51 67 146 141 135 315 316 144 153 152 257 86 180 122 234 161 177 226 215 194 229 225 191 155 160 160 170 173 186 194 192 189 184 184 178 178 183 183 159 132 124 112 333 341 49 298 347 347 257 157 177 205 222 207 185 178 157 173 176 179 175 176 161 167 178 175 163 146 131 119 95 111 117 114 101 94 94 93 97 96 99 94 92 92 92 84 77 80 78 72 72 70 67
109 235 232 68 103 151 119 252 100 1 312 148 136 117 197 136 134 200 176 221 223 234 234 246 232 227 171 162 163 166 176 179 189 199 199 195 197 186 192 195 190 153 126 134 166 157 152 279 301 268 320 295 315 193 154 158 209 214 190 189 184 185 182 184 182 181 173 177 183 176 159 151 135 134 138 139 135 129 126 126 127 123 121 120 121 111 113 117 108 94 82 72 68 67 70 64 60
117 27 10 71 166 101 84 140 40 359 330 134 128 165 179 98 163 214 200 229 245 218 228 223 252 54 157 163 167 170 182 184 190 196 201 198 201 202 192 156 84 112 149 196 169 167 168 208 284 314 278 295 323 310 343 203 262 208 191 181 188 181 186 179 178 181 185 186 184 181 165 162 146 148 146 146 146 141 141 137 134 133 132 129 127 119 118 111 100 88 80 73 65 64 67 66 57
142 56 153 332 342 80 76 156 165 208 149 159 171 150 97 188 197 169 236 235 48 76 78 13 340 56 59 157 157 177 185 192 192 196 197 198 197 200 199 186 179 190 191 205 170 180 184 269 290 276 265 258 276 262 241 290 248 325 235 179 184 190 186 176 177 183 194 194 183 180 176 172 161 156 152 149 149 153 146 142 137 140 138 131 127 118 103 95 93 90 85 82 78 72 69 66 61
303 128 154 96 307 59 20 91 126 253 194 147 58 92 209 142 234 108 234 238 242 116 43 6 313 216 157 163 180 184 188 192 195 196 195 199 198 195 194 201 202 149 227 205 233 265 257 265 276 269 252 244 243 226 230 230 221 39 299 167 201 171 178 177 173 161 191 205 187 158 203 168 153 158 152 150 148 151 129 141 140 140 137 123 117 110 109 103 97 91 89 87 85 76 72 69 70
121 121 196 115 349 41 59 109 147 189 59 59 160 185 167 233 317 337 250 242 228 151 104 207 162 174 184 194 186 188 187 192 197 192 174 186 166 147 149 173 184 201 217 209 214 225 225 244 254 255 258 252 242 236 229 223 214 130 251 107 324 162 164 167 164 167 163 180 176 178 179 165 154 144 159 140 136 118 106 127 132 124 130 124 118 114 111 111 101 96 94 94 89 81 73 69 67
1 92 129 127 94 85 94 127 114 36 98 178 185 206 82 72 319 257 256 243 79 98 169 143 169 180 191 202 195 191 191 192 192 192 197 182 177 183 184 190 186 201 200 192 209 220 238 255 255 254 252 243 237 232 224 217 206 179 147 136 118 352 118 137 147 154 169 169 140 134 147 143 145 136 124 133 136 125 112 89 98 89 80 80 101 99 100 103 105 104 101 94 87 81 72 66 71
96 117 103 99 71 114 45 188 98 44 58 202 253 231 143 135 239 258 86 35 107 160 181 159 204 204 195 197 197 200 197 195 192 183 183 189 188 202 190 192 199 199 178 200 201 209 218 250 256 250 242 238 237 222 222 223 210 198 142 132 132 94 123 118 146 150 150 152 141 132 141 146 137 129 111 92 84 108 118 106 97 93 91 77 86 86 81 92 99 102 103 101 98 97 88 77 79
65 124 139 97 107 85 113 108 76 243 146 298 285 274 83 165 165 248 100 95 277 214 193 196 213 213 200 204 203 202 209 198 185 184 193 191 198 197 191 196 199 189 199 199 201 187 208 219 230 234 252 215 208 215 215 219 205 165 151 156 145 136 146 127 107 130 157 152 149 146 140 149 144 139 129 125 126 117 112 111 112 110 105 104 95 103 103 96 98 99 100 100 101 97 96 87 77
112 252 160 40 133 170 64 137 47 297 132 336 12 268 244 179 238 214 92 110 124 244 234 221 221 219 211 207 209 207 210 198 191 200 205 200 193 190 195 193 186 190 188 186 185 190 201 203 210 212 211 186 194 192 197 186 177 154 140 167 155 150 126 117 117 104 88 143 154 149 147 147 154 151 144 136 125 120 113 117 113 111 112 111 109 108 108 105 107 110 102 96 96 100 98 92 85
220 67 23 150 176 214 80 159 92 229 99 15 241 260 241 208 230 119 155 140 145 234 240 226 222 216 217 213 218 217 207 200 205 208 205 200 197 195 203 183 187 194 174 178 186 198 186 197 210 173 170 166 149 121 123 138 127 125 120 124 68 84 91 108 115 107 58 107 132 118 125 126 131 119 119 116 123 121 119 118 121 120 120 119 119 121 110 112 112 111 112 108 105 102 100 97 94
176 54 263 355 213 173 88 20 26 218 89 216 246 257 258 164 166 80 73 213 217 246 237 223 217 220 220 220 220 223 217 212 212 206 207 199 198 197 201 185 182 188 174 187 196 187 179 168 140 167 133 150 146 115 76 91 111 118 116 103 70 48 65 95 95 114 124 116 105 111 118 115 114 118 120 118 111 115 117 118 121 128 133 133 125 123 116 113 118 121 123 114 107 99 97 97 95
34 207 175 153 253 120 119 64 284 249 105 279 215 259 258 276 276 80 52 172 212 247 250 236 221 223 225 224 225 225 223 205 212 215 208 202 199 198 195 188 184 184 194 187 184 187 184 171 166 164 156 149 134 105 92 91 107 121 121 116 104 84 77 86 77 61 72 106 111 113 114 116 119 123 115 113 114 114 111 117 126 128 133 131 127 126 120 123 125 120 121 124 119 113 109 103 99
52 286 128 203 248 338 260 105 26 10 66 186 233 272 31 258 129 64 87 167 194 248 259 250 238 235 235 231 228 228 219 214 213 215 207 199 200 198 194 193 187 190 192 186 189 185 177 166 163 160 158 149 118 111 108 91 93 106 108 108 108 108 105 95 91 71 56 65 80 106 109 116 128 128 127 127 125 129 126 119 123 130 132 126 124 124 121 124 127 124 122 118 118 119 113 109 103
200 14 247 68 242 145 223 108 117 16 262 205 215 247 248 264 223 208 175 178 193 245 260 256 236 235 231 232 229 226 225 223 219 206 202 195 194 196 195 192 191 190 191 194 198 194 179 174 167 150 136 130 127 123 117 108 102 100 97 96 75 77 93 104 101 98 73 76 62 75 83 107 121 122 125 126 120 121 123 125 130 130 127 125 121 120 120 126 128 127 122 118 119 121 119 116 108
190 180 205 194 217 242 307 271 82 252 171 254 217 242 261 259 263 263 247 172 224 254 255 262 258 240 237 229 227 226 225 223 227 201 186 187 190 191 193 189 191 191 191 194 194 186 174 172 162 132 134 130 122 117 103 94 97 96 94 92 91 76 74 102 108 106 127 122 103 106 108 110 111 103 112 126 127 127 126 130 135 136 134 132 126 125 127 130 127 126 125 123 117 112 117 113 112
164 187 174 91 232 183 211 183 71 318 244 243 234 249 263 264 258 256 259 177 231 256 262 259 254 251 249 237 226 221 222 230 218 175 169 178 187 186 188 186 188 191 193 193 194 174 179 152 146 145 146 139 132 127 127 115 113 116 111 100 89 71 69 110 111 90 91 115 120 130 129 135 131 120 119 129 135 134 132 134 133 135 132 133 132 134 140 138 131 126 123 124 117 105 105 113 120
86 85 153 238 260 270 112 179 39 263 280 251 250 253 264 270 269 267 266 213 233 249 254 251 244 240 240 238 233 225 223 229 147 168 171 181 184 188 187 185 188 188 195 191 189 183 182 165 161 160 159 152 152 148 149 147 142 121 109 130 124 114 116 115 99 108 104 97 114 120 128 135 133 126 125 139 135 130 125 129 136 136 139 141 137 137 136 133 129 127 124 125 127 123 120 128 130
144 140 201 207 195 276 84 88 86 130 256 282 173 262 266 267 271 266 261 248 255 250 248 247 248 241 242 239 238 228 229 143 145 177 181 181 188 189 186 187 188 190 197 191 193 191 186 172 170 160 160 167 166 163 153 156 159 163 153 147 136 136 145 136 124 116 105 102 89 99 117 122 134 132 133 135 139 131 127 134 140 144 144 140 130 131 134 133 133 133 134 123 125 128 130 143 150
112 217 152 279 240 278 250 16 117 143 193 268 289 278 270 266 263 265 256 245 244 241 241 256 260 253 244 237 235 234 203 211 183 196 181 188 190 190 189 190 191 195 194 193 195 193 182 172 175 165 170 170 166 157 161 149 127 93 106 120 119 108 47 53 88 98 105 105 91 80 87 109 124 127 132 141 139 132 132 137 141 145 143 134 131 135 139 140 144 144 148 141 134 115 121 93 144
161 144 179 234 42 316 262 126 78 143 242 315 320 294 277 270 253 251 257 256 256 248 243 250 249 254 255 250 241 225 230 212 196 190 188 188 190 192 192 192 190 194 195 195 194 195 182 181 174 172 169 171 164 152 111 103 98 94 80 87 74 65 117 89 87 83 93 116 107 90 84 96 117 129 130 134 137 134 138 142 140 143 140 145 143 145 150 148 149 150 147 142 137 137 153 156 10
231 221 215 240 163 210 255 358 300 161 94 255 281 269 261 236 265 264 252 258 262 262 253 254 252 246 252 278 286 252 245 213 198 188 187 185 190 196 194 189 184 196 197 197 194 192 182 182 173 173 172 169 161 143 133 126 118 105 99 86 85 94 92 107 108 113 133 129 120 121 112 105 126 125 123 131 142 135 136 140 143 144 146 149 149 148 152 155 154 151 150 149 161 149 152 137 100
187 233 223 236 136 217 221 330 331 283 234 75 348 320 271 163 248 255 256 254 254 240 245 250 247 247 239 247 251 246 223 222 208 195 189 187 191 190 192 186 190 197 199 199 194 189 179 180 176 174 166 163 158 155 150 151 151 142 140 134 138 139 147 159 167 167 169 165 149 120 107 115 127 121 127 125 127 134 138 142 142 147 149 149 153 148 143 144 151 151 158 159 151 151 144 140 128
215 218 208 223 139 65 136 171 285 271 279 90 319 349 291 185 223 220 227 231 266 268 245 257 252 214 214 236 244 234 226 212 212 206 183 185 189 188 191 189 191 198 200 195 191 181 180 177 178 171 165 164 161 162 163 160 155 167 168 166 166 168 164 174 147 143 151 132 130 136 126 125 130 125 121 126 125 130 135 138 140 142 144 142 133 135 140 150 150 153 150 155 147 137 144 137 141
215 60 145 152 177 194 200 202 220 278 337 279 146 212 289 300 212 197 350 314 281 279 269 264 259 162 221 238 233 230 221 213 196 199 192 189 185 188 189 187 192 198 194 192 185 176 183 180 172 171 167 166 163 165 172 176 167 174 176 168 168 165 167 153 149 134 110 131 134 132 134 129 126 117 120 115 122 124 131 130 127 127 125 123 135 143 145 143 136 114 136 125 136 151 156 147 145
35 62 202 138 148 143 144 175 176 352 354 286 128 139 267 264 172 41 157 153 237 243 255 264 269 125 253 252 245 234 228 217 202 190 191 186 187 190 189 186 188 192 194 194 193 182 180 173 167 168 169 167 165 171 174 183 191 184 177 165 161 132 107 113 116 119 132 144 134 131 131 132 122 100 103 110 111 115 119 127 124 129 129 133 132 123 114 120 134 142 143 149 156 146 145 142 147
187 131 95 92 90 76 89 124 95 235 295 265 142 172 262 281 248 142 65 234 243 246 247 256 329 307 287 276 228 209 213 209 207 208 189 185 186 186 187 180 182 193 195 194 195 179 168 163 166 170 170 169 169 172 178 184 191 187 173 172 143 126 127 125 136 144 147 150 137 141 136 140 127 113 100 103 106 112 114 122 124 123 124 122 120 117 117 119 126 133 137 135 131 124 120 130 133
130 181 105 89 75 90 89 58 323 301 247 255 152 181 231 284 259 154 154 196 217 226 261 289 312 272 287 319 254 212 201 189 191 189 180 173 176 177 180 183 184 190 194 194 194 177 156 169 173 177 175 168 171 174 179 182 183 193 185 176 157 146 146 147 147 152 152 155 149 152 151 136 126 118 121 115 110 117 117 118 124 120 116 114 118 126 132 131 128 122 114 115 117 125 122 109 101
158 154 137 131 135 142 157 111 107 231 260 92 340 182 229 221 272 180 173 356 267 244 261 270 286 289 6 38 127 212 216 185 166 170 163 160 162 175 183 188 188 194 195 194 195 174 166 172 175 178 173 173 173 175 180 186 188 193 184 165 165 167 157 160 163 164 167 161 156 154 144 134 123 123 128 130 132 131 131 123 116 121 125 131 129 127 125 128 128 128 130 128 114 104 114 118 116
225 149 154 193 210 52 226 172 217 190 242 103 8 198 289 238 248 347 290 272 256 218 237 259 265 271 202 192 201 195 207 189 172 171 166 173 180 182 188 191 192 198 198 196 194 183 170 176 177 177 178 176 176 176 184 188 184 185 172 169 176 176 178 166 160 161 168 159 155 151 151 147 139 144 152 146 144 147 140 137 140 138 132 124 121 121 122 127 129 125 118 114 118 122 124 125 124
197 183 172 182 220 215 255 191 343 320 286 40 36 130 249 293 302 246 251 250 246 219 229 241 256 258 250 224 208 206 196 197 185 177 180 180 183 187 190 192 195 200 199 198 195 187 175 177 182 183 180 177 177 182 186 184 186 180 174 174 174 178 183 174 164 163 168 160 155 152 156 154 158 159 154 153 149 150 145 138 134 119 114 118 119 119 121 119 118 119 117 115 111 103 102 99 99
201 37 184 212 185 184 218 175 231 244 7 80 274 163 243 215 182 30 268 309 347 310 280 236 254 261 257 268 250 232 213 198 190 190 190 189 189 188 188 191 195 200 199 199 197 194 174 180 183 184 176 178 178 182 182 184 182 173 163 153 158 180 191 179 169 171 167 156 154 152 150 151 154 149 149 135 144 143 130 126 123 121 121 119 119 116 111 109 102 106 107 108 105 105 100 97 92
135 291 29 294 230 63 259 17 334 28 336 213 179 229 249 230 14 291 257 279 283 257 263 267 264 248 227 252 243 220 197 185 186 197 199 200 194 190 190 193 194 201 201 199 198 195 182 185 186 185 179 179 182 182 184 180 179 174 163 166 176 181 188 180 171 171 168 160 157 156 149 150 144 139 127 136 142 139 137 130 124 120 120 119 118 118 120 118 117 117 117 115 107 93 104 97 101
170 138 214 195 353 103 96 127 76 115 227 254 165 263 252 278 275 240 236 215 240 230 257 247 247 250 221 245 246 221 183 178 190 197 203 197 190 195 197 194 194 200 202 202 201 192 186 185 185 187 184 179 183 183 184 185 178 168 172 174 180 183 191 188 182 176 168 158 161 154 148 144 134 139 137 142 141 140 138 135 128 124 122 120 123 125 123 123 124 123 122 122 118 115 108 109 111
109 216 196 102 329 2 179 244 137 201 245 271 105 253 279 349 285 70 41 213 224 233 246 237 245 248 241 244 243 199 180 196 201 205 205 194 191 194 196 199 197 198 200 203 204 197 191 189 185 185 180 181 185 182 185 183 173 167 168 178 184 190 193 195 184 172 165 161 160 150 138 140 152 142 140 141 141 139 135 137 130 129 128 131 133 129 126 128 128 120 121 119 120 122 115 114 118
306 13 130 182 198 204 179 213 234 207 233 273 245 264 267 226 251 124 95 171 198 229 233 234 247 242 235 247 243 132 170 188 201 205 197 194 196 196 198 200 199 199 198 202 203 199 191 189 188 190 187 186 183 183 183 174 172 165 168 179 180 185 191 193 184 170 164 167 164 160 155 147 135 138 141 144 144 144 145 141 137 137 137 139 135 131 132 131 130 127 127 124 126 130 128 132 138
51 106 172 8 308 256 162 205 344 239 267 99 266 176 270 222 208 177 224 206 226 220 209 225 232 239 237 240 234 163 193 205 198 198 199 199 199 198 197 196 198 198 199 199 200 201 196 188 185 189 185 181 178 181 180 179 179 173 172 173 181 183 184 187 181 170 172 174 169 161 155 146 148 147 149 150 151 154 151 148 148 141 142 143 138 135 138 134 134 134 138 139 137 136 137 143 146
174 198 195 159 208 341 339 21 205 226 231 229 285 285 254 232 145 173 196 195 211 202 216 229 227 227 236 237 199 181 194 206 207 198 196 196 196 196 196 197 197 197 197 202 203 204 197 187 190 188 183 178 179 181 179 180 170 173 173 179 177 176 179 182 178 179 176 173 168 165 160 152 145 154 153 158 159 157 153 149 145 146 152 151 144 141 141 140 140 140 140 135 141 148 148 150 152
186 188 194 186 149 174 175 223 90 234 212 228 181 249 272 183 36 162 187 188 199 207 205 224 246 238 244 15 335 228 187 194 203 208 198 193 191 189 190 191 194 195 200 203 201 197 184 187 189 188 187 183 177 178 177 173 173 172 179 178 180 179 178 176 176 176 180 175 169 167 156 147 157 155 161 161 159 153 151 150 149 154 158 150 143 142 145 148 147 147 142 143 154 160 158 155 159